Location: Bo?a Wola
(50.4192°N, 19.7966°E)
Time: 12:06:40
(UTC+00:00)

Cosmos 1898 Rocket - Pass Details

Date: 15 June 2024
Orbit: 751 x 781 km, 74.0° (Epoch: 16 July)

Event Time Altitude Azimuth Distance (km) Brightness Sun altitude
Exits shadow 01:01:17 12° 231° (SW) 2,169 5.2 -10.0°
Maximum altitude 01:05:54 44° 302° (WNW) 1,040 4.2 -9.6°
Drops below altitude 10° 01:10:51 10° 14° (NNE) 2,286 7.3 -9.2°
Sets 01:13:20 0° 22° (NNE) 3,215 8.6 -9.0°
